This demonstration page uses our WeatherBlox Daily Observations layout. Learn more.

Left ArrowRight Arrow

40.92945, -100.16068

Hourly Observations for July 2, 2022

Temp ( °F °C ) Dew Point ( °F °C ) Humidity (%) Winds ( mph kmh ) Pressure ( in mb ) Visibility ( mi km ) Precip ( " mm )
12:15 am 00:15 Clear 68 19.8 63 17.1 85 85 ESE 6 9 29.99 1016 10 16 0.00 0.00
12:35 am 00:35 Clear 67 19.5 63 17.1 86 86 ESE 6 9 29.99 1015 10 16 0.00 0.00
12:55 am 00:55 Clear 65 18.6 63 17 90 90 E 6 9 29.99 1016 10 16 0.00 0.00
1:15 am 01:15 Clear 64 17.7 62 16.7 94 94 ENE 7 11 29.98 1015 10 16 0.00 0.00
1:35 am 01:35 Clear 64 17.5 62 16.6 95 95 ENE 6 9 29.99 1016 7 11 0.00 0.00
1:55 am 01:55 Clear 63 17.4 62 16.5 94 94 ESE 7 11 29.98 1015 10 16 0.00 0.00
2:15 am 02:15 Clear 65 18.3 62 16.6 90 90 ESE 8 13 29.97 1015 10 16 0.00 0.00
2:35 am 02:35 Clear 65 18.5 61 16.2 87 87 SE 6 9 29.97 1015 10 16 0.00 0.00
2:55 am 02:55 Partly Cloudy 67 19.4 62 16.5 83 83 NW 12 19 30.02 1016 10 16 0.00 0.00
3:15 am 03:15 Mostly Cloudy 66 19 63 17.1 89 89 NNW 3 6 30.01 1016 10 16 0.00 0.00
3:35 am 03:35 Mostly Cloudy 66 18.9 63 17.4 91 91 N 5 7 30.00 1016 10 16 0.00 0.00
3:55 am 03:55 Partly Cloudy 65 18.5 63 17.1 92 92 Calm 29.99 1016 10 16 0.00 0.00
4:15 am 04:15 Clear 64 17.6 62 16.5 93 93 ENE 5 7 29.99 1016 10 16 0.00 0.00
4:35 am 04:35 Clear 64 18 62 16.7 92 92 ESE 6 9 29.97 1015 10 16 0.00 0.00
4:55 am 04:55 Clear 65 18.2 62 16.5 90 90 ESE 10 17 29.93 1013 10 16 0.00 0.00
5:15 am 05:15 Clear 65 18.3 61 16 87 87 ESE 12 19 29.91 1013 10 16 0.00 0.00
5:35 am 05:35 Clear 65 18.5 61 16 85 85 S 5 7 29.93 1013 10 16 0.00 0.00
5:55 am 05:55 Clear 64 18 61 16.1 89 89 SE 9 15 29.93 1014 10 16 0.00 0.00
6:15 am 06:15 Sunny 64 18 61 15.9 88 88 SSE 7 11 29.95 1014 10 16 0.00 0.00
6:35 am 06:35 Sunny 64 17.5 61 16 91 91 SSE 6 9 29.95 1014 10 16 0.00 0.00
6:55 am 06:55 Sunny 64 17.5 61 16.2 92 92 WSW 5 7 29.99 1016 10 16 0.00 0.00
7:15 am 07:15 Mostly Cloudy 65 18.3 62 16.6 90 90 WNW 8 13 29.98 1015 10 16 0.00 0.00
7:35 am 07:35 Partly Cloudy 65 18.5 61 16.3 87 87 Calm 29.96 1015 10 16 0.00 0.00
7:55 am 07:55 Sunny 65 18.6 62 16.4 87 87 Calm 29.94 1014 10 16 0.00 0.00
8:15 am 08:15 Partly Cloudy 66 19.1 62 16.5 85 85 Calm 29.95 1014 10 16 0.00 0.00
8:35 am 08:35 Partly Cloudy 67 19.6 62 16.9 85 85 E 5 7 29.94 1014 10 16 0.00 0.00
8:55 am 08:55 Partly Cloudy 69 20.8 63 17.3 80 80 SE 8 13 29.93 1013 10 16 0.00 0.00
9:15 am 09:15 Partly Cloudy 69 20.5 64 17.7 84 84 ESE 6 9 29.94 1014 10 16 0.00 0.00
9:35 am 09:35 Cloudy 69 20.5 65 18.1 86 86 ESE 5 7 29.95 1014 10 16 0.00 0.00
9:55 am 09:55 Cloudy 69 20.6 65 18.4 87 87 ESE 9 15 29.95 1014 7 11 0.00 0.00
10:15 am 10:15 Cloudy 70 21 66 18.8 87 87 ESE 7 11 29.95 1014 10 16 0.00 0.00
10:35 am 10:35 Cloudy 70 21.1 66 19 88 88 ESE 7 11 29.96 1015 10 16 0.00 0.00
10:55 am 10:55 Cloudy 70 21.1 66 19 88 88 SSE 9 15 29.96 1015 10 16 0.00 0.00
11:15 am 11:15 Cloudy 70 21.3 66 19 87 87 SE 6 9 29.96 1015 10 16 0.00 0.00
11:35 am 11:35 Cloudy 70 21.2 66 19 87 87 SE 7 11 29.96 1015 7 11 0.00 0.00
11:55 am 11:55 Cloudy 69 20.8 66 18.9 89 89 ESE 5 7 29.98 1015 7 11 0.00 0.00
12:15 pm 12:15 Cloudy 70 21.1 66 19 88 88 SE 6 9 29.97 1015 7 11 0.00 0.00
12:35 pm 12:35 Mostly Cloudy 71 21.4 67 19.3 88 88 SE 10 17 29.97 1015 7 11 0.00 0.00
12:55 pm 12:55 Cloudy 71 21.7 67 19.3 86 86 SSE 8 13 29.96 1014 7 11 0.00 0.00
1:15 pm 13:15 Cloudy 73 22.9 67 19.3 80 80 S 7 11 29.95 1014 10 16 0.00 0.00
1:35 pm 13:35 Mostly Cloudy 76 24.5 67 19.4 73 73 SSE 7 11 29.93 1014 10 16 0.00 0.00
1:55 pm 13:55 Partly Cloudy 77 25 67 19.4 71 71 SE 6 9 29.93 1014 10 16 0.00 0.00
2:15 pm 14:15 Mostly Cloudy 77 24.8 66 18.9 70 70 SE 3 6 29.92 1013 10 16 0.00 0.00
2:35 pm 14:35 Mostly Cloudy 78 25.3 66 18.7 67 67 SE 3 6 29.92 1013 10 16 0.00 0.00
2:55 pm 14:55 Partly Cloudy 80 26.6 66 19.1 64 64 SSE 7 11 29.90 1012 10 16 0.00 0.00
3:15 pm 15:15 Partly Cloudy 81 27 66 19.1 62 62 SW 3 6 29.89 1012 10 16 0.00 0.00
3:35 pm 15:35 Sunny 81 27.3 66 18.8 60 60 S 5 7 29.89 1012 10 16 0.00 0.00
3:55 pm 15:55 Partly Cloudy 81 27 67 19.2 62 62 SSE 7 11 29.89 1012 10 16 0.00 0.00
4:15 pm 16:15 Partly Cloudy 83 28.4 66 18.8 56 56 SSE 7 11 29.87 1012 10 16 0.00 0.00
4:35 pm 16:35 Partly Cloudy 82 27.9 65 18.2 56 56 SSE 6 9 29.88 1012 10 16 0.00 0.00
4:55 pm 16:55 Partly Cloudy 82 27.6 65 18.1 56 56 SSE 6 9 29.87 1011 10 16 0.00 0.00
5:15 pm 17:15 Sunny 83 28.6 64 17.9 52 52 SE 6 9 29.86 1011 10 16 0.00 0.00
5:35 pm 17:35 Sunny 83 28.4 65 18.4 55 55 ESE 7 11 29.86 1011 10 16 0.00 0.00
5:55 pm 17:55 Sunny 83 28.5 64 17.8 52 52 E 8 13 29.85 1011 10 16 0.00 0.00
6:15 pm 18:15 Sunny 84 28.7 65 18.4 54 54 ESE 9 15 29.84 1010 10 16 0.00 0.00
6:35 pm 18:35 Sunny 83 28.3 65 18.1 54 54 ESE 10 17 29.84 1011 10 16 0.00 0.00
6:55 pm 18:55 Sunny 83 28.2 63 17.4 52 52 E 10 17 29.83 1010 10 16 0.00 0.00
7:15 pm 19:15 Sunny 82 28 64 17.9 54 54 ESE 9 15 29.84 1010 10 16 0.00 0.00
7:35 pm 19:35 Sunny 82 28 64 18 55 55 SE 10 17 29.84 1010 10 16 0.00 0.00
7:55 pm 19:55 Sunny 82 27.6 64 17.9 56 56 SE 7 11 29.85 1011 10 16 0.00 0.00
8:15 pm 20:15 Sunny 81 27.3 65 18.1 57 57 SSE 9 15 29.85 1011 10 16 0.00 0.00
8:35 pm 20:35 Sunny 80 26.6 65 18.5 61 61 SE 9 15 29.86 1011 10 16 0.00 0.00
8:55 pm 20:55 Sunny 78 25.8 66 18.8 65 65 SE 8 13 29.86 1011 10 16 0.00 0.00
9:15 pm 21:15 Clear 77 25 66 19 69 69 SE 8 13 29.88 1012 10 16 0.00 0.00
9:35 pm 21:35 Clear 76 24.4 66 19 72 72 SE 9 15 29.89 1012 10 16 0.00 0.00
9:55 pm 21:55 Clear 75 23.7 66 19 75 75 SE 8 13 29.90 1013 10 16 0.00 0.00
10:15 pm 22:15 Clear 74 23.2 66 19 77 77 SE 8 13 29.91 1013 10 16 0.00 0.00
10:35 pm 22:35 Clear 73 22.6 66 19 80 80 SE 8 13 29.93 1014 10 16 0.00 0.00
10:55 pm 22:55 Clear 72 22.2 66 19 82 82 SE 9 15 29.93 1014 10 16 0.00 0.00
11:15 pm 23:15 Clear 72 22.1 66 18.8 82 82 SE 9 15 29.93 1014 10 16 0.00 0.00
11:35 pm 23:35 Clear 71 21.8 66 18.8 83 83 SE 8 13 29.94 1014 10 16 0.00 0.00
11:55 pm 23:55 Clear 70 21.1 66 18.8 87 87 ESE 8 13 29.95 1014 10 16 0.00 0.00

Powered by AerisWeather